Regional Weather Roundup
Issued by NWS Albany, NY

Home | Current Version | Previous Version | Graphics & Text | Print | Product List | Glossary Off
Versions: 1 2 3 4 5 6 7 8 9 10 11 12 13 14 15 16 17 18 19 20 21 22 23 24 25 26 27

000
ASUS41 KALY 222010
RWRALY

NEW YORK STATE HOURLY WEATHER ROUNDUP
NATIONAL WEATHER SERVICE ALBANY NY
400 PM EDT THU JUN 22 2017

NOTE: "FAIR" INDICATES FEW OR NO CLOUDS BELOW 12,000 FEET WITH NO
SIGNIFICANT WEATHER AND/OR NO OBSTRUCTIONS TO VISIBILITY.

NYZ032-033-038>043-046>054-057>066-NYZ062>081-082-084-222100-
EAST


CITY           SKY/WX    TMP DP  RH WIND       PRES   REMARKS
ALBANY         PTSUNNY   80  57  45 VRB5      29.91F
GLENS FALLS    NOT AVBL
POUGHKEEPSIE   MOSUNNY   82  59  45 SW9       29.91F
NEWBURGH       MOSUNNY   82  63  51 W12       29.95F
MONTGOMERY     MOSUNNY   84  62  47 SW10G18   29.92F
WHITE PLAINS   MOSUNNY   81  59  47 VRB7      29.94F
ISLIP          MOSUNNY   77  55  46 S10       29.96F
NEW YORK CITY  MOSUNNY   84  59  42 S15       29.93F
CENTRAL PARK   SUNNY     82  61  48 VRB3      29.96F
$$

NYZ005>009-017-018-044>046-055-056-222100-
CENTRAL


CITY           SKY/WX    TMP DP  RH WIND       PRES   REMARKS
FULTON         CLOUDY    73  58  59 CALM      29.90F
SYRACUSE       CLOUDY    75  55  49 S6        29.89F
ROME           CLOUDY    75  58  55 W6        29.91F
ELMIRA         MOSUNNY   81  64  57 CALM      29.91
BINGHAMTON     NOT AVBL
MONTICELLO     SUNNY     79  54  41 W8G16     29.98F
$$

NYZ026>034-041>043-087-222100-
NORTH


CITY           SKY/WX    TMP DP  RH WIND       PRES   REMARKS
WATERTOWN      CLOUDY    74  59  59 W9        29.89F
FORT DRUM      NOT AVBL
OGDENSBURG     FAIR      73  57  58 SW6       29.88S
MASSENA        CLOUDY    74  57  55 W10       29.88F
SARANAC LAKE   CLOUDY    69  52  54 SW9       29.91F
PLATTSBURGH    CLOUDY    75  55  49 S5        29.86F
$$

NYZ001>004-010>016-019>021-085-222100-
WEST


CITY           SKY/WX    TMP DP  RH WIND       PRES   REMARKS
NIAGARA FALLS  CLOUDY    81  63  54 SW18G24   29.86F
BUFFALO        MOSUNNY   79  63  57 SW17G31   29.86F
DUNKIRK        CLOUDY    81  70  69 S15G23    29.87F
JAMESTOWN      MOSUNNY   75  66  73 SW12G18   29.95F
WELLSVILLE     PTSUNNY   73  64  73 SW9       29.99F
ROCHESTER      PTSUNNY   78  59  51 SW6       29.87F
PENN YAN       PTSUNNY   76  58  53 S3        29.90F
$$

             KEY
       WCI = WIND CHILL INDEX
       VSB = VISIBILITY
       HX  = HEAT INDEX
$$




USA.gov is the U.S. government's official web portal to all federal, state and local government web resources and services.